WB5NHL-13 Weather Reports


Display with metric or nautical units.
time (UTC)temp
F
wind
direction
speed
MPH
gust
MPH
rain 1hr
in
rain 24hr
in
rain mn
in
humidity
%
barometer
mb
20260906090018 72 0.0 0.0 0.00 0.03 0.00 99 1010.3
20260906085033 72 0.0 0.0 0.00 0.03 0.00 99 1010.5
20260906084018 72 0.0 0.0 0.00 0.03 0.00 99 1010.4
20260906083021 72 0.0 0.0 0.00 0.03 0.00 99 1010.3
20260906082024 72 0.0 0.0 0.00 0.03 0.00 99 1010.3
20260906081027 72 0.0 0.0 0.00 0.03 0.00 99 1009.9
20260906080030 73 0.0 0.0 0.00 0.03 0.00 99 1010.2
20260906075053 73 0.0 0.0 0.00 0.03 0.00 99 1010.2
20260906074018 73 0.0 0.0 0.00 0.03 0.00 99 1010.2
20260906073020 73 0.0 0.0 0.00 0.03 0.00 99 1010.3
20260906072024 73 0.0 0.0 0.00 0.03 0.00 99 1010.4
20260906071027 73 0.0 0.0 0.00 0.03 0.00 99 1010.4
20260906070029 73 0.0 0.0 0.00 0.03 0.00 99 1010.3
20260906065033 73 0.0 0.0 0.00 0.03 0.00 99 1010.5
20260906064037 73 0.0 0.0 0.00 0.03 0.00 99 1010.6
20260906063020 73 0.0 0.0 0.00 0.03 0.00 99 1010.7
20260906062023 73 0.0 0.0 0.00 0.03 0.00 99 1010.8
20260906061026 73 0.0 0.0 0.00 0.03 0.00 99 1010.6
20260906060043 73 0.0 0.0 0.00 0.03 0.00 99 1010.9
20260906055020 73 0.0 0.0 0.00 0.03 0.00 99 1011.0
20260906054017 73 0.0 0.0 0.00 0.03 0.00 99 1011.0
20260906053019 74 0.0 0.0 0.00 0.03 0.00 99 1011.0
20260906052023 74 0.0 0.0 0.00 0.03 0.00 99 1010.9
20260906051026 74 0.0 0.0 0.00 0.03 0.00 99 1011.2
20260906050029 74 0.0 0.0 0.00 0.03 0.00 99 1011.3
20260906045032 74 0.0 0.0 0.00 0.03 0.00 99 1011.3
20260906044017 74 0.0 0.0 0.00 0.03 0.00 99 1011.3
20260906043040 74 0.0 0.0 0.00 0.03 0.00 99 1011.2
20260906042022 74 0.0 0.0 0.00 0.03 0.00 99 1011.2
20260906041025 74 0.0 0.0 0.00 0.03 0.00 99 1011.3
20260906040028 74 0.0 0.0 0.00 0.03 0.00 99 1011.5
20260906035031 74 0.0 0.0 0.00 0.03 0.03 99 1011.4
20260906034057 74 0.0 0.0 0.00 0.03 0.03 99 1011.5
20260906033019 74 0.0 0.0 0.00 0.03 0.03 99 1011.6
20260906032022 74 0.0 0.0 0.00 0.03 0.03 99 1012.0
20260906031025 74 0.0 0.0 0.00 0.03 0.03 99 1012.1
20260906030028 74 0.0 0.0 0.00 0.03 0.03 99 1012.1
20260906025025 74 0.0 0.0 0.00 0.03 0.03 99 1012.2
20260906024016 74 0.0 0.0 0.00 0.03 0.03 99 1012.3
20260906023019 74 0.0 0.0 0.00 0.03 0.03 99 1012.4
20260906022016 74 0.0 0.0 0.00 0.03 0.03 99 1012.5
20260906021025 74 0.0 0.0 0.00 0.03 0.03 99 1012.2
20260906020048 74 0.0 0.0 0.00 0.03 0.03 99 1012.2
20260906015051 74 0.0 0.0 0.00 0.03 0.03 99 1011.6
20260906014015 75 0.0 0.0 0.00 0.03 0.03 99 1011.3
20260906013019 75 0.0 0.0 0.00 0.03 0.03 99 1011.0
20260906012022 75 0.0 0.0 0.00 0.03 0.03 99 1010.7
20260906011025 75 0.0 0.0 0.00 0.03 0.03 99 1010.2
20260906010028 75 0.0 0.0 0.00 0.03 0.03 99 1009.9
20260906005031 75 0.0 0.0 0.00 0.03 0.03 99 1010.0
20260906004016 75 0.0 0.0 0.00 0.03 0.03 99 1010.0
20260906003039 75 0.0 0.0 0.00 0.03 0.03 99 1010.1
20260906002022 75 0.0 0.0 0.00 0.03 0.03 99 1010.3
20260906001024 76 0.0 0.0 0.00 0.03 0.03 99 1010.5
20260906000047 76 0.0 0.0 0.00 0.03 0.03 98 1010.3
20260905235111 76 0.0 0.0 0.00 0.03 0.03 97 1010.7
20260905234015 77 0.0 0.0 0.02 0.03 0.03 98 1010.9
20260905233018 77 0.0 0.0 0.03 0.03 0.03 97 1011.0
20260905232101 78 0.0 0.0 0.03 0.03 0.03 98 1010.8
20260905231018 79 0.0 0.0 0.03 0.03 0.03 95 1010.1
20260905230027 81 0.0 0.0 0.03 0.03 0.03 89 1010.1
20260905225030 83 0.0 0.0 0.03 0.03 0.03 83 1010.6
20260905224033 87 0.0 0.0 0.01 0.01 0.01 70 1010.7
20260905223023 90 0.0 0.0 0.00 0.00 0.00 67 1010.6
20260905222021 92 0.0 0.0 0.00 0.00 0.00 64 1010.4
20260905221024 95 0.0 0.0 0.00 0.00 0.00 60 1009.1
20260905220027 97 0.0 0.0 0.00 0.00 0.00 57 1009.2
20260905215030 97 0.0 0.0 0.00 0.00 0.00 57 1009.0
20260905214032 98 0.0 0.0 0.00 0.00 0.00 54 1008.8
20260905213018 97 0.0 0.0 0.00 0.00 0.00 54 1008.6
20260905212021 96 0.0 0.0 0.00 0.00 0.00 56 1008.8
20260905211023 96 0.0 0.0 0.00 0.00 0.00 55 1008.9
20260905210027 97 0.0 0.0 0.00 0.00 0.00 52 1008.9
20260905205029 97 0.0 0.0 0.00 0.00 0.00 55 1008.8
20260905204053 97 0.0 0.0 0.00 0.00 0.00 55 1008.9
20260905203017 98 0.0 0.0 0.00 0.00 0.00 54 1008.9
20260905202020 98 0.0 0.0 0.00 0.00 0.00 54 1009.1
20260905201023 98 0.0 0.0 0.00 0.00 0.00 54 1009.0
20260905200020 98 0.0 0.0 0.00 0.00 0.00 56 1009.2
20260905195037 100 0.0 0.0 0.00 0.00 0.00 54 1009.3
20260905194052 100 0.0 0.0 0.00 0.00 0.00 52 1009.5
20260905193022 100 0.0 0.0 0.00 0.00 0.00 53 1009.7
20260905192020 101 0.0 0.0 0.00 0.00 0.00 53 1009.7
20260905191023 99 0.0 0.0 0.00 0.00 0.00 56 1010.1
20260905190046 100 0.0 0.0 0.00 0.00 0.00 53 1010.4
20260905185029 100 0.0 0.0 0.00 0.00 0.00 55 1010.4
20260905184032 99 0.0 0.0 0.00 0.00 0.00 55 1010.4
20260905183017 99 0.0 0.0 0.00 0.00 0.00 57 1010.6
20260905182020 99 0.0 0.0 0.00 0.00 0.00 58 1010.8
20260905181023 98 0.0 0.0 0.00 0.00 0.00 58 1010.8
20260905180026 97 0.0 0.0 0.00 0.00 0.00 60 1011.3
20260905175029 97 0.0 0.0 0.00 0.00 0.00 62 1011.4
20260905174032 96 0.0 0.0 0.00 0.00 0.00 64 1011.4
20260905173017 95 0.0 0.0 0.00 0.00 0.00 66 1011.4
20260905172019 94 0.0 0.0 0.00 0.00 0.00 69 1011.6
20260905171022 93 0.0 0.0 0.00 0.00 0.00 70 1011.8
20260905170025 92 0.0 0.0 0.00 0.00 0.00 74 1011.8
20260905165022 92 0.0 0.0 0.00 0.00 0.00 73 1012.1
20260905164019 91 0.0 0.0 0.00 0.00 0.00 74 1012.3
20260905163016 91 0.0 0.0 0.00 0.00 0.00 75 1012.5
20260905162019 90 0.0 0.0 0.00 0.00 0.00 76 1012.7
20260905161022 90 0.0 0.0 0.00 0.00 0.00 77 1012.8
20260905160025 89 0.0 0.0 0.00 0.00 0.00 78 1013.0
20260905155028 88 0.0 0.0 0.00 0.00 0.00 80 1013.1
20260905154031 88 0.0 0.0 0.00 0.00 0.00 81 1013.2
20260905153016 87 0.0 0.0 0.00 0.00 0.00 82 1013.3
20260905152019 86 0.0 0.0 0.00 0.00 0.00 82 1013.1
20260905151022 86 0.0 0.0 0.00 0.00 0.00 85 1013.2
20260905150025 84 0.0 0.0 0.00 0.00 0.00 89 1013.7
20260905145028 84 0.0 0.0 0.00 0.00 0.00 89 1013.7
20260905144031 83 0.0 0.0 0.00 0.00 0.00 91 1013.7
20260905143036 82 0.0 0.0 0.00 0.00 0.00 92 1013.6
20260905142019 82 0.0 0.0 0.00 0.00 0.00 93 1013.8
20260905141022 81 0.0 0.0 0.00 0.00 0.00 94 1013.9
20260905140025 80 0.0 0.0 0.00 0.00 0.00 99 1014.0
20260905135028 80 0.0 0.0 0.00 0.00 0.00 99 1013.9
20260905134025 79 0.0 0.0 0.00 0.00 0.00 99 1013.9
20260905133036 79 0.0 0.0 0.00 0.00 0.00 99 1014.0
20260905132039 78 0.0 0.0 0.00 0.00 0.00 99 1014.1
20260905131036 77 0.0 0.0 0.00 0.00 0.00 99 1014.3
20260905130024 77 0.0 0.0 0.00 0.00 0.00 99 1014.2
20260905125027 76 0.0 0.0 0.00 0.00 0.00 99 1014.2
20260905124031 76 0.0 0.0 0.00 0.00 0.00 99 1014.1
20260905123056 76 0.0 0.0 0.00 0.00 0.00 99 1013.9
20260905122018 75 0.0 0.0 0.00 0.00 0.00 99 1014.0
20260905121021 75 0.0 0.0 0.00 0.00 0.00 99 1013.7
20260905120024 75 0.0 0.0 0.00 0.00 0.00 99 1013.7
20260905115027 75 0.0 0.0 0.00 0.00 0.00 99 1013.7
20260905114030 75 0.0 0.0 0.00 0.00 0.00 99 1013.6
20260905113033 75 0.0 0.0 0.00 0.00 0.00 99 1013.4
20260905112018 75 0.0 0.0 0.00 0.00 0.00 99 1013.7
20260905111021 75 0.0 0.0 0.00 0.00 0.00 99 1013.7
20260905110024 75 0.0 0.0 0.00 0.00 0.00 99 1013.4
20260905105027 75 0.0 0.0 0.00 0.00 0.00 99 1013.4
20260905104029 75 0.0 0.0 0.00 0.00 0.00 99 1013.4
20260905103026 75 0.0 0.0 0.00 0.00 0.00 99 1013.3
20260905102037 75 0.0 0.0 0.00 0.00 0.00 99 1013.3
20260905101040 75 0.0 0.0 0.00 0.00 0.00 99 1013.2
20260905100017 75 0.0 0.0 0.00 0.00 0.00 99 1013.1
20260905095026 75 0.0 0.0 0.00 0.00 0.00 99 1013.2
20260905094029 76 0.0 0.0 0.00 0.00 0.00 99 1013.2
20260905093032 76 0.0 0.0 0.00 0.00 0.00 99 1013.1
20260905092016 76 0.0 0.0 0.00 0.00 0.00 99 1013.0
20260905091020 76 0.0 0.0 0.00 0.00 0.00 99 1013.0